Location: Lone Pine
(34.9712°N, 88.7426°W)
Time: 08:13:50
(UTC+00:00)

Daily predictions for brighter satellites

Satellite Brightness Start Highest point End
(mag) Time Altitude Azimuth Time Altitude Azimuth Time Altitude Azimuth
H-2A R/B 3.3 12:02:01 10° NNE 12:05:41 62° E 12:09:19 10° S
Cosmos 1400 Rocket 2.8 12:01:53 10° NNW 12:05:54 68° W 12:09:50 10° S
Cosmos 1818 3.8 12:01:10 10° SSW 12:06:35 78° ESE 12:12:03 10° NNE
Cosmos 2333 Rocket 3.5 12:01:20 10° N 12:06:46 41° ENE 12:12:10 10° SE
Sich 1 3.4 12:04:46 10° S 12:08:58 68° E 12:13:13 10° NNE
Cosmos 1356 Rocket 3.6 23:05:01 10° S 23:09:09 81° W 23:13:24 10° N
Cosmos 2369 3.8 23:06:21 10° SSW 23:12:00 86° WNW 23:17:43 10° NNE
APEX 3.4 23:08:45 10° S 23:12:23 43° ESE 23:15:24 10° NE
ATLAS 5 CENTAUR R/B 2.6 23:07:32 10° NNW 23:13:38 87° NE 23:20:33 10° SSE
TELKOM 3 2.7 23:11:56 10° NW 23:14:01 52° NE 23:16:07 10° ESE
Cosmos 1238 Rocket 4.1 23:14:16 10° NNW 23:17:43 39° W 23:20:42 10° SSW
Cosmos 1697 Rocket 2.8 23:12:22 10° SSW 23:18:02 82° WNW 23:23:43 10° NNE
SKYMED 2 4.5 23:18:22 10° NE 23:22:08 29° E 23:25:53 10° SSE
CZ-4 R/B 2.9 23:21:02 10° ESE 23:23:37 16° ENE 23:26:11 10° NNE
Cosmos 2082 3.7 23:18:47 10° NNW 23:24:19 57° ENE 23:29:50 10° SE
Cosmos 1805 Rocket 3.8 23:21:21 10° N 23:25:44 76° W 23:30:06 10° S
CZ-3C R/B 4.1 23:22:31 10° WSW 23:26:18 15° SSW 23:29:18 10° S
Lacrosse 4 Rocket 3.3 23:25:21 10° WSW 23:28:53 28° WNW 23:32:25 10° N
Cosmos 2360 4.2 23:23:14 10° SSW 23:28:53 79° ESE 23:34:36 10° NNE
Cosmos 923 Rocket 4.5 23:24:22 10° SSW 23:29:31 64° WNW 23:34:42 10° N
Cosmos 2278 3.8 23:24:17 10° SSW 23:29:56 83° WNW 23:35:40 10° NNE
IRS-1C Rocket 4.4 23:28:25 10° S 23:33:41 75° WSW 23:38:58 10° NNW
Okean-O 2.7 23:30:17 10° SSE 23:34:34 53° ENE 23:38:54 10° N
Cosmos 1933 4.2 23:36:19 10° SSE 23:39:51 29° E 23:43:24 10° NNE
Cosmos 2056 Rocket 4.3 23:36:02 10° N 23:40:26 28° ENE 23:44:51 10° SE
Cosmos 1606 3.8 23:39:26 10° SE 23:42:29 24° E 23:44:38 15° NE
SeaSat 1 3.2 23:39:56 10° ESE 23:44:15 31° ENE 23:48:34 10° N
Cosmos 1862 3.2 23:43:32 10° N 23:47:32 84° E 23:51:32 10° S
Cosmos 1151 Rocket 2.9 23:45:25 10° S 23:49:45 80° E 23:54:09 10° N
Cosmos 1633 Rocket 3.0 23:47:32 10° N 23:51:59 86° E 23:56:24 10° S
BREEZE-M R/B 3.6 23:46:56 10° SW 23:53:32 51° SE 23:55:38 24° ENE
Cosmos 2228 Rocket 3.6 23:51:32 10° SSE 23:55:35 36° E 23:59:25 12° NNE
